Location: Pinon Hills
(34.4429°N, 117.6403°W)
Time: 16:41:28
(UTC-08:00)

XW-2F - Pass Details

Date: 30 October 2019
Orbit: 502 x 524 km, 97.5° (Epoch: 16 November)

Event Time Altitude Azimuth Distance (km) Brightness Sun altitude
Rises 06:09:46 0° 28° (NNE) 2,608 ? -12.7°
Reaches altitude 10° 06:12:12 10° 43° (NE) 1,722 ? -12.2°
Maximum altitude 06:15:08 22° 96° (E) 1,143 ? -11.6°
Drops below altitude 10° 06:18:04 10° 149° (SSE) 1,720 ? -11.0°
Sets 06:20:30 0° 164° (SSE) 2,605 ? -10.5°
